STARLINK-5750, 55594

Orbit data source: Space-Track

STARLINK-5750, 55594 is a payload satellite owned by SpaceX/Seattle (US) in LEO that was launched on Sun, 12 Feb 2023 UTC via an FALCON 9 launch vehicle from the Air Force Eastern Test Range (AFETR). Payload-class satellites include a variety of spacecraft equipped with specific instruments for various scientific and technological missions. These include communications satellites like Starlink; space stations such as the ISS; scientific satellites like the Hubble; Earth observation satellites from companies like Planet Labs, Umbra, and HawkEye 360; GPS; miniature CubeSats for education and research; and military/defense satellites.

Loading next visibility...
Identifier
55594, 2023-020AB
Orbit
LEO
Country
Flag of USUS
Related business
Manufacturer
SpaceX/Seattle
Mission
Operational Commercial Communications
Bus & Motor
STARLINK, Unknown motor
Mass
305 kg wet, ~290 kg dry
Launch date (UTC)
2023-02-12 (3 years ago)
Launch vehicle
FALCON 9
Launch site
Air Force Eastern Test Range (AFETR)
Object type
Payload
Rocket body
Debris
Shape & HBR
Box + 1 Pan, 10.1 m
Radar Cross Section
13.562 m², Large (>1 m²)

Expand to show TLE details & history
Last TLE update: 15 hours ago

TLE from 15 hours ago
0 STARLINK-5750
1 55594U 23020AB  25340.55352714 -.00000938  00000-0 -54368-4 0  9993
2 55594  43.0028 150.3384 0001453 275.7656  84.3020 15.02536278154918
Epoch: 2025-12-06T13:17Z
TLE epoch observation values (Epoch: 2025-12-06T13:17:04.744Z)
Latitude
-0.00008°
Longitude
-124.51106°
Altitude
558.757 km
Speed
7.584 km/s
True Right ascension
10h 01m 21s
True Declination
0° 00' 00"
Sunlit
Object was in daylight at epoch
Visualization orbit readout
Latitude
Unknown
Longitude
Unknown
Altitude
Unknown
Speed
Unknown
Apparent Right ascension
Unknown
Apparent Declination
Unknown
Sunlit
N/A
Visualization observer readout
Local Sidereal Time
02:07:46
Azimuth
Unknown
Elevation
Unknown
Doppler factor
Unknown
Orbital elements
Apogee altitude
562.01 km
Perigee altitude
559.994 km
Semi-major axis
6,939.139 km
Eccentricity
0.00015
Inclination
43.0028°
RAAN
150.3384°
Arg. of periapsis
275.7656°
True anomaly
84.31857°
Mean anomaly
84.302°
Eccentric anomaly
84.31028°
Mean motion
3.75478 °/min
Orbital period
95.88 mins
BSTAR
-0.000054368
Loading maneuver chart data...
Computing Atmospheric mass density...
Loading historical data...
Loading historical data...
Loading historical data...
Loading historical data...
Loading historical data...
Loading historical data...
Loading historical data...

Documentation

Showing up to 5 results
|